• Em Portugal
  • Lista de países
  • Para 7 dias
  • Temperatura da água
  • Mapas de satélite
  • Mapa do tempo
  • Widgets de tempo
  • user-avatar
    Iniciar Sessão

    Previsão horária em Irbid

    Hoje, 17 Julho, Terça-feira

    Tempo Temperatura Precipitação Vento Pressão Humidade
    00:00 +26°C° 0 mm 2 m/s 707 mmHg 65%
    01:00 +26°C° 0 mm 2 m/s 706 mmHg 68%
    02:00 +25°C° 0 mm 2 m/s 706 mmHg 71%
    03:00 +25°C° 0 mm 2 m/s 706 mmHg 73%
    04:00 +24°C° 0 mm 2 m/s 706 mmHg 75%
    05:00 +24°C° 0 mm 2 m/s 707 mmHg 77%
    06:00 +26°C° 0 mm 2 m/s 707 mmHg 69%
    07:00 +27°C° 0 mm 2 m/s 707 mmHg 62%
    08:00 +28°C° 0 mm 3 m/s 707 mmHg 56%
    09:00 +30°C° 0 mm 3 m/s 708 mmHg 50%
    10:00 +32°C° 0 mm 4 m/s 708 mmHg 44%
    11:00 +34°C° 0 mm 5 m/s 708 mmHg 38%
    12:00 +35°C° 0 mm 5 m/s 708 mmHg 35%
    13:00 +35°C° 0 mm 6 m/s 708 mmHg 33%
    14:00 +36°C° 0 mm 7 m/s 708 mmHg 30%
    15:00 +35°C° 0 mm 7 m/s 707 mmHg 31%
    16:00 +34°C° 0 mm 7 m/s 707 mmHg 33%
    17:00 +34°C° 0 mm 7 m/s 707 mmHg 34%
    18:00 +32°C° 0 mm 6 m/s 707 mmHg 38%
    19:00 +30°C° 0 mm 5 m/s 707 mmHg 42%
    20:00 +28°C° 0 mm 3 m/s 707 mmHg 46%
    21:00 +28°C° 0 mm 3 m/s 706 mmHg 49%
    22:00 +27°C° 0 mm 2 m/s 706 mmHg 53%
    23:00 +26°C° 0 mm 2 m/s 706 mmHg 56%

    Amanhã, 18 Julho, Quarta-feira

    Tempo Temperatura Precipitação Vento Pressão Humidade
    00:00 +26°C° 0 mm 2 m/s 706 mmHg 57%
    01:00 +25°C° 0 mm 2 m/s 706 mmHg 59%
    02:00 +25°C° 0 mm 2 m/s 706 mmHg 60%
    03:00 +25°C° 0 mm 2 m/s 706 mmHg 61%
    04:00 +24°C° 0 mm 2 m/s 706 mmHg 63%
    05:00 +24°C° 0 mm 2 m/s 706 mmHg 64%
    06:00 +25°C° 0 mm 2 m/s 706 mmHg 56%
    07:00 +27°C° 0 mm 3 m/s 706 mmHg 48%
    08:00 +29°C° 0 mm 3 m/s 707 mmHg 39%
    09:00 +32°C° 0 mm 4 m/s 707 mmHg 35%
    10:00 +33°C° 0 mm 5 m/s 707 mmHg 30%
    11:00 +35°C° 0 mm 5 m/s 707 mmHg 25%
    12:00 +36°C° 0 mm 6 m/s 707 mmHg 24%
    13:00 +38°C° 0 mm 6 m/s 707 mmHg 24%
    14:00 +38°C° 0 mm 7 m/s 707 mmHg 23%
    15:00 +36°C° 0 mm 7 m/s 706 mmHg 24%
    16:00 +35°C° 0 mm 7 m/s 706 mmHg 26%
    17:00 +34°C° 0 mm 7 m/s 706 mmHg 28%
    18:00 +33°C° 0 mm 6 m/s 706 mmHg 34%
    19:00 +30°C° 0 mm 5 m/s 706 mmHg 39%
    20:00 +29°C° 0 mm 4 m/s 706 mmHg 45%
    21:00 +28°C° 0 mm 3 m/s 706 mmHg 49%
    22:00 +27°C° 0 mm 3 m/s 706 mmHg 54%
    23:00 +26°C° 0 mm 2 m/s 706 mmHg 58%

    Depois de amanhã, 19 Julho, Quinta-feira

    Tempo Temperatura Precipitação Vento Pressão Humidade
    00:00 +26°C° 0 mm 2 m/s 706 mmHg 61%
    01:00 +25°C° 0 mm 2 m/s 706 mmHg 64%
    02:00 +25°C° 0 mm 2 m/s 705 mmHg 67%
    03:00 +24°C° 0 mm 2 m/s 705 mmHg 70%
    04:00 +24°C° 0 mm 2 m/s 706 mmHg 72%
    05:00 +24°C° 0 mm 2 m/s 706 mmHg 75%
    06:00 +25°C° 0 mm 2 m/s 706 mmHg 66%
    07:00 +27°C° 0 mm 2 m/s 706 mmHg 58%
    08:00 +28°C° 0 mm 3 m/s 707 mmHg 49%
    09:00 +30°C° 0 mm 4 m/s 707 mmHg 42%
    10:00 +33°C° 0 mm 4 m/s 707 mmHg 35%
    11:00 +35°C° 0 mm 5 m/s 708 mmHg 27%
    12:00 +36°C° 0 mm 5 m/s 707 mmHg 26%
    13:00 +36°C° 0 mm 6 m/s 707 mmHg 25%
    14:00 +38°C° 0 mm 7 m/s 707 mmHg 24%
    15:00 +36°C° 0 mm 7 m/s 707 mmHg 27%
    16:00 +35°C° 0 mm 7 m/s 706 mmHg 29%
    17:00 +34°C° 0 mm 6 m/s 706 mmHg 32%
    18:00 +32°C° 0 mm 6 m/s 706 mmHg 38%
    19:00 +30°C° 0 mm 5 m/s 706 mmHg 44%
    20:00 +28°C° 0 mm 4 m/s 707 mmHg 51%
    21:00 +27°C° 0 mm 3 m/s 707 mmHg 55%
    22:00 +26°C° 0 mm 3 m/s 707 mmHg 59%
    23:00 +26°C° 0 mm 2 m/s 707 mmHg 63%

    20 Julho, Sexta-feira

    Tempo Temperatura Precipitação Vento Pressão Humidade
    00:00 +25°C° 0 mm 2 m/s 706 mmHg 66%
    01:00 +24°C° 0 mm 2 m/s 706 mmHg 69%
    02:00 +24°C° 0 mm 2 m/s 706 mmHg 72%
    03:00 +24°C° 0 mm 2 m/s 706 mmHg 74%
    04:00 +23°C° 0 mm 2 m/s 706 mmHg 76%
    05:00 +23°C° 0 mm 2 m/s 706 mmHg 78%
    06:00 +24°C° 0 mm 3 m/s 707 mmHg 70%
    07:00 +26°C° 0 mm 3 m/s 707 mmHg 63%
    08:00 +27°C° 0 mm 4 m/s 708 mmHg 55%
    09:00 +29°C° 0 mm 5 m/s 708 mmHg 48%
    10:00 +30°C° 0 mm 5 m/s 708 mmHg 41%
    11:00 +33°C° 0 mm 6 m/s 708 mmHg 34%
    12:00 +34°C° 0 mm 6 m/s 708 mmHg 32%
    13:00 +35°C° 0 mm 7 m/s 708 mmHg 31%
    14:00 +35°C° 0 mm 8 m/s 707 mmHg 30%
    15:00 +34°C° 0 mm 7 m/s 707 mmHg 33%
    16:00 +33°C° 0 mm 7 m/s 707 mmHg 36%
    17:00 +32°C° 0 mm 7 m/s 707 mmHg 40%
    18:00 +30°C° 0 mm 6 m/s 707 mmHg 46%
    19:00 +28°C° 0 mm 5 m/s 707 mmHg 52%
    20:00 +27°C° 0 mm 4 m/s 707 mmHg 58%
    21:00 +26°C° 0 mm 4 m/s 707 mmHg 61%
    22:00 +26°C° 0 mm 3 m/s 707 mmHg 64%
    23:00 +25°C° 0 mm 3 m/s 707 mmHg 67%

    21 Julho, Sábado

    Tempo Temperatura Precipitação Vento Pressão Humidade
    00:00 +25°C° 0 mm 3 m/s 707 mmHg 69%
    01:00 +24°C° 0 mm 3 m/s 706 mmHg 72%
    02:00 +24°C° 0 mm 3 m/s 706 mmHg 74%
    03:00 +22°C° 0 mm 3 m/s 706 mmHg 76%
    04:00 +22°C° 0 mm 3 m/s 707 mmHg 78%
    05:00 +22°C° 0 mm 3 m/s 707 mmHg 80%
    06:00 +23°C° 0 mm 4 m/s 707 mmHg 73%
    07:00 +26°C° 0 mm 4 m/s 707 mmHg 66%
    08:00 +27°C° 0 mm 5 m/s 708 mmHg 59%
    09:00 +28°C° 0 mm 5 m/s 708 mmHg 52%
    10:00 +30°C° 0 mm 6 m/s 708 mmHg 44%
    11:00 +33°C° 0 mm 7 m/s 708 mmHg 37%
    12:00 +33°C° 0 mm 7 m/s 708 mmHg 35%
    13:00 +34°C° 0 mm 8 m/s 707 mmHg 33%
    14:00 +34°C° 0 mm 8 m/s 707 mmHg 32%
    15:00 +33°C° 0 mm 8 m/s 707 mmHg 35%
    16:00 +32°C° 0 mm 8 m/s 707 mmHg 38%
    17:00 +31°C° 0 mm 8 m/s 706 mmHg 41%
    18:00 +29°C° 0 mm 7 m/s 707 mmHg 48%
    19:00 +27°C° 0 mm 6 m/s 707 mmHg 55%
    20:00 +26°C° 0 mm 5 m/s 707 mmHg 62%
    21:00 +26°C° 0 mm 4 m/s 706 mmHg 66%
    22:00 +25°C° 0 mm 4 m/s 706 mmHg 69%
    23:00 +25°C° 0 mm 3 m/s 706 mmHg 72%

    22 Julho, Domingo

    Tempo Temperatura Precipitação Vento Pressão Humidade
    00:00 +24°C° 0 mm 3 m/s 706 mmHg 73%
    01:00 +24°C° 0 mm 3 m/s 706 mmHg 75%
    02:00 +24°C° 0 mm 3 m/s 705 mmHg 76%
    03:00 +24°C° 0 mm 3 m/s 705 mmHg 78%
    04:00 +22°C° 0 mm 3 m/s 705 mmHg 79%
    05:00 +22°C° 0 mm 3 m/s 706 mmHg 80%
    06:00 +24°C° 0 mm 3 m/s 706 mmHg 74%
    07:00 +25°C° 0 mm 3 m/s 706 mmHg 68%
    08:00 +26°C° 0 mm 4 m/s 706 mmHg 63%
    09:00 +28°C° 0 mm 4 m/s 706 mmHg 57%
    10:00 +29°C° 0 mm 4 m/s 706 mmHg 51%
    11:00 +32°C° 0 mm 5 m/s 706 mmHg 45%
    12:00 +33°C° 0 mm 6 m/s 706 mmHg 43%
    13:00 +34°C° 0 mm 6 m/s 706 mmHg 41%
    14:00 +34°C° 0 mm 7 m/s 706 mmHg 40%
    15:00 +34°C° 0 mm 7 m/s 705 mmHg 43%
    16:00 +33°C° 0 mm 7 m/s 705 mmHg 46%
    17:00 +32°C° 0 mm 7 m/s 705 mmHg 49%
    18:00 +30°C° 0 mm 6 m/s 705 mmHg 55%
    19:00 +29°C° 0 mm 5 m/s 705 mmHg 60%
    20:00 +27°C° 0 mm 4 m/s 705 mmHg 65%
    21:00 +27°C° 0 mm 4 m/s 705 mmHg 67%
    22:00 +26°C° 0 mm 3 m/s 705 mmHg 70%
    23:00 +26°C° 0 mm 3 m/s 705 mmHg 72%
    Mostrar mais